[[{"header":{"parameterUnit":"m.s-1","parameterCategory":1,"la1":30.2992,"la2":30.254,"lo1":-89.0895,"lo2":-89.0443,"dy":0.0025,"dx":0.0025,"nx":19,"ny":19,"refTime":"2026-05-14T03:00:00:Z","depth":0,"parameterNumber":2,"parameterNumberName":"U-component_of_WINDS"},"data":[0,0,0,-0.4772,-0.477,-0.4663,-0.4663,-0.4526,-0.4525,0,0,0,0,0,0,0,0,0,0,0,-0.4806,-0.4805,-0.4772,-0.477,-0.4663,-0.4663,-0.4527,-0.4525,0,0,0,0,0,0,0,0,0,0,0,-0.4806,-0.4805,-0.4804,-0.4769,-0.4663,-0.4663,-0.4527,-0.4607,0,0,0,0,0,0,0,0,0,0,-0.471,-0.4744,-0.4805,-0.4804,-0.4769,-0.4663,-0.4663,-0.4611,-0.4602,-0.4575,0,-0.4554,0,-0.4538,-0.4516,-0.4516,0,0,0,-0.4768,-0.4751,-0.4721,-0.4804,-0.4768,-0.4664,-0.4711,-0.4606,-0.4596,-0.4564,-0.4552,-0.4547,-0.4535,-0.4515,-0.4515,-0.4372,-0.4372,0,0,-0.4774,-0.4787,-0.4728,-0.4715,-0.4733,-0.4714,-0.4707,-0.46,-0.4587,-0.4552,-0.4544,-0.4533,-0.4515,-0.4514,-0.4373,-0.4372,0,0,0,-0.4792,-0.4792,-0.4764,-0.472,-0.4701,-0.4711,-0.4703,-0.4592,-0.4582,-0.4542,-0.4532,-0.4514,-0.4512,-0.4373,-0.4373,-0.4357,0,0,0,-0.4795,-0.4802,-0.4766,-0.4774,-0.4703,-0.4646,-0.4698,-0.4589,-0.4577,-0.4532,-0.4514,-0.4511,-0.4374,-0.4373,-0.4359,-0.4347,0,0,0,-0.4812,-0.4804,-0.479,-0.4775,-0.473,-0.4647,-0.4631,-0.4586,-0.457,-0.4516,-0.4511,-0.4375,-0.4373,-0.4361,-0.435,-0.4312,0,0,0,-0.4833,-0.4778,-0.479,-0.4723,-0.4731,-0.464,-0.4631,-0.4563,-0.4514,-0.4513,-0.4374,-0.4373,-0.4361,-0.4351,-0.4314,-0.4282,-0.4271,0,0,-0.4771,-0.4771,-0.473,-0.4738,-0.4648,-0.4655,-0.4562,-0.4504,-0.4486,-0.4411,-0.4407,-0.4358,-0.435,-0.4313,-0.4205,-0.4197,0,0,0,-0.4715,-0.4686,-0.4659,-0.4614,-0.457,-0.4529,-0.4484,-0.4462,-0.4398,-0.4451,-0.4335,-0.433,-0.4307,-0.4291,-0.4284,-0.4263,-0.4367,-0.4367,-0.4367,-0.4645,-0.4625,-0.4556,-0.4523,-0.448,-0.4434,-0.4396,-0.4358,-0.4351,-0.4324,-0.4301,-0.4238,-0.422,-0.4214,-0.4193,-0.4284,-0.4284,-0.4284,-0.4284,-0.455,-0.4504,-0.4496,-0.4426,-0.4405,-0.4345,-0.4298,-0.4295,-0.4235,-0.4254,-0.4233,-0.4255,-0.4205,-0.4185,-0.4282,-0.4283,-0.4283,-0.4283,-0.4283,-0.45,-0.4475,-0.445,-0.4382,-0.4332,-0.43,-0.4243,-0.4225,-0.4209,-0.4188,-0.4161,-0.4161,-0.4157,-0.4177,-0.4176,-0.4176,-0.4176,-0.4176,-0.4176,-0.4458,-0.4431,-0.4385,-0.4332,-0.4301,-0.4256,-0.4209,-0.4176,-0.4135,-0.4127,-0.4126,-0.412,-0.4205,-0.4226,-0.4172,-0.4173,-0.4173,-0.4174,-0.4174,-0.4366,-0.4384,-0.4314,-0.4282,-0.4217,-0.4167,-0.4146,-0.4081,-0.4051,-0.4023,-0.4021,-0.4088,-0.4086,-0.4092,-0.4108,-0.4027,-0.4027,-0.4027,-0.4027,-0.4323,-0.4321,-0.4244,-0.4194,-0.4143,-0.4116,-0.4035,-0.3997,-0.396,-0.394,-0.3949,-0.3971,-0.3977,-0.3971,-0.398,-0.3995,-0.3887,-0.3887,-0.3887,-0.4264,-0.4256,-0.4191,-0.4157,-0.4105,-0.406,-0.3982,-0.3922,-0.3884,-0.3881,-0.3923,-0.3929,-0.3963,-0.3976,-0.3972,-0.3985,-0.4013,0,0]},{"header":{"parameterUnit":"m.s-1","parameterCategory":1,"la1":30.2992,"la2":30.254,"lo1":-89.0895,"lo2":-89.0443,"dy":0.0025,"dx":0.0025,"nx":19,"ny":19,"refTime":"2026-05-14T03:00:00:Z","depth":0,"parameterNumber":3,"parameterNumberName":"V-component_of_WINDS"},"data":[0,0,0,-0.7814,-0.7815,-0.7873,-0.7873,-0.7919,-0.7919,0,0,0,0,0,0,0,0,0,0,0,-0.7779,-0.7779,-0.7814,-0.7815,-0.7873,-0.7873,-0.7919,-0.7919,0,0,0,0,0,0,0,0,0,0,0,-0.7779,-0.7779,-0.7778,-0.7815,-0.7872,-0.7873,-0.7919,-0.7885,0,0,0,0,0,0,0,0,0,0,-0.7834,-0.7784,-0.7779,-0.7778,-0.7815,-0.7872,-0.7873,-0.7884,-0.7887,-0.788,0,-0.7869,0,-0.7894,-0.792,-0.792,0,0,0,-0.7828,-0.7781,-0.7813,-0.7778,-0.7815,-0.7872,-0.785,-0.7886,-0.789,-0.7884,-0.787,-0.7872,-0.7895,-0.792,-0.792,-0.7834,-0.7833,0,0,-0.7825,-0.778,-0.781,-0.7814,-0.7803,-0.7848,-0.7852,-0.7889,-0.787,-0.787,-0.7874,-0.7896,-0.792,-0.792,-0.7835,-0.7834,0,0,0,-0.7807,-0.7777,-0.7809,-0.7812,-0.7824,-0.785,-0.7854,-0.7869,-0.7883,-0.7875,-0.7896,-0.792,-0.7921,-0.7836,-0.7835,-0.7738,0,0,0,-0.7805,-0.7767,-0.7806,-0.778,-0.7823,-0.7847,-0.7832,-0.788,-0.7886,-0.7896,-0.792,-0.7921,-0.7838,-0.7836,-0.7743,-0.7699,0,0,0,-0.7781,-0.7764,-0.7767,-0.7777,-0.78,-0.7848,-0.7864,-0.7882,-0.7898,-0.792,-0.7921,-0.7838,-0.7836,-0.7748,-0.7707,-0.7661,0,0,0,-0.7743,-0.7681,-0.7764,-0.7704,-0.78,-0.7788,-0.7864,-0.7859,-0.7866,-0.792,-0.7837,-0.7835,-0.7749,-0.7711,-0.7665,-0.7611,-0.7585,0,0,-0.764,-0.7667,-0.7636,-0.7712,-0.7673,-0.7783,-0.7732,-0.7782,-0.7826,-0.7829,-0.7828,-0.7742,-0.7707,-0.7662,-0.7463,-0.7442,0,0,0,-0.7588,-0.7563,-0.7564,-0.7568,-0.7605,-0.7632,-0.7695,-0.7714,-0.7719,-0.7818,-0.7716,-0.7697,-0.7672,-0.7648,-0.763,-0.761,-0.7823,-0.7823,-0.7824,-0.7375,-0.7434,-0.7385,-0.7451,-0.7455,-0.7521,-0.7529,-0.7566,-0.7625,-0.76,-0.76,-0.7472,-0.7442,-0.7429,-0.7408,-0.758,-0.7579,-0.7579,-0.7579,-0.7227,-0.72,-0.7282,-0.7262,-0.7326,-0.7311,-0.7372,-0.7415,-0.741,-0.7477,-0.7459,-0.7523,-0.7405,-0.7389,-0.7572,-0.7573,-0.7574,-0.7575,-0.7575,-0.709,-0.7088,-0.7112,-0.7125,-0.7129,-0.72,-0.719,-0.725,-0.7306,-0.7288,-0.7292,-0.7294,-0.73,-0.7287,-0.7286,-0.7286,-0.7285,-0.7285,-0.7285,-0.6937,-0.6968,-0.6953,-0.6987,-0.6997,-0.7019,-0.7086,-0.7099,-0.7127,-0.7171,-0.7172,-0.7231,-0.7384,-0.7418,-0.7278,-0.7279,-0.728,-0.7281,-0.7281,-0.6757,-0.6808,-0.6783,-0.6793,-0.6839,-0.6837,-0.6915,-0.6935,-0.6955,-0.6948,-0.7014,-0.7118,-0.7149,-0.7164,-0.7193,-0.7003,-0.7003,-0.7003,-0.7003,-0.6639,-0.6662,-0.665,-0.6662,-0.6682,-0.675,-0.672,-0.6772,-0.6834,-0.6849,-0.6887,-0.6932,-0.6944,-0.6968,-0.6987,-0.7014,-0.6784,-0.6783,-0.6783,-0.6529,-0.6558,-0.6519,-0.658,-0.662,-0.6653,-0.6626,-0.6638,-0.6719,-0.6776,-0.6862,-0.6871,-0.6944,-0.6966,-0.7018,-0.7046,-0.7098,0,0]}]]